This demonstration page uses our WeatherBlox Daily Observations layout. Learn more.

36.17497, -115.13722

Hourly Observations for February 22, 2016

Temp ( °F °C ) Dew Point ( °F °C ) Humidity (%) Winds ( mph kmh ) Pressure ( in mb ) Visibility ( mi km ) Precip ( " mm )
12:53 am 00:53 Clear 58 14.4 25 -3.9 28 28 W 7 11 30.01 1016 10 16.0934 0 0
1:53 am 01:53 Clear 54 12.2 25 -3.9 33 33 SE 5 7 29.97 1015 10 16.0934 0 0
2:53 am 02:53 Clear 52 11.1 25 -3.9 35 35 NNW 7 11 29.98 1015 10 16.0934 0 0
3:53 am 03:53 Clear 56 13.3 24 -4.4 29 29 N 14 22 29.98 1015 10 16.0934 0 0
4:53 am 04:53 Clear 56 13.3 25 -3.9 30 30 N 18 30 29.98 1015 10 16.0934 0 0
5:53 am 05:53 Clear 57 13.9 25 -3.9 29 29 NNW 21 33 29.99 1016 10 16.0934 0 0
6:53 am 06:53 Sunny 60 15.6 21 -6.1 22 22 NNW 23 37 30.01 1016 10 16.0934 0 0
7:53 am 07:53 Sunny 62 16.7 22 -5.6 21 21 NNW 21 33 30.04 1017 10 16.0934 0 0
8:53 am 08:53 Sunny 65 18.3 23 -5 20 20 NNW 24 39 30.04 1017 10 16.0934 0 0
9:53 am 09:53 Sunny 67 19.4 24 -4.4 20 20 NNW 28 44 30.06 1018 10 16.0934 0 0
10:53 am 10:53 Sunny 69 20.6 24 -4.4 18 18 NNW 31 50 30.04 1017 10 16.0934 0 0
11:53 am 11:53 Sunny 70 21.1 22 -5.6 16 16 NNW 24 39 30.04 1017 10 16.0934 0 0
12:53 pm 12:53 Sunny 71 21.7 21 -6.1 15 15 NNW 24 39 30.01 1016 10 16.0934 0 0
1:53 pm 13:53 Sunny 71 21.7 17 -8.3 13 13 NNW 21 33 30 1016 10 16.0934 0 0
2:53 pm 14:53 Sunny 72 22.2 14 -10 11 11 NW 18 30 29.99 1016 10 16.0934 0 0
3:53 pm 15:53 Sunny 72 22.2 7 -13.9 8 8 N 12 19 29.98 1015 10 16.0934 0 0
4:53 pm 16:53 Sunny 70 21.1 4 -15.6 7 7 NNW 14 22 29.98 1015 10 16.0934 0 0
5:53 pm 17:53 Clear 66 18.9 9 -12.8 10 10 NNW 7 11 30 1016 10 16.0934 0 0
6:53 pm 18:53 Clear 64 17.8 11 -11.7 12 12 W 7 11 30.01 1016 10 16.0934 0 0
7:53 pm 19:53 Clear 63 17.2 14 -10 15 15 NNW 6 9 30.03 1017 10 16.0934 0 0
8:53 pm 20:53 Clear 62 16.7 9 -12.8 12 12 NNW 13 20 30.04 1017 10 16.0934 0 0
9:53 pm 21:53 Clear 61 16.1 11 -11.7 14 14 NW 17 28 30.06 1018 10 16.0934 0 0
10:53 pm 22:53 Clear 60 15.6 13 -10.6 16 16 ENE 9 15 30.08 1019 10 16.0934 0 0
11:53 pm 23:53 Clear 55 12.8 18 -7.8 23 23 E 9 15 30.09 1019 10 16.0934 0 0

Powered by AerisWeather